Location: Glencliff
(36.1226°N, 86.7183°W)
Time: 00:58:54
(UTC+00:00)

Cosmos 1515 - Pass Details

Date: 25 August 2019
Orbit: 508 x 516 km, 82.5° (Epoch: 19 September)

Event Time Altitude Azimuth Distance (km) Brightness Sun altitude
Rises 01:58:11 0° 354° (N) 2,627 7.8 -18.2°
Reaches altitude 10° 02:00:19 10° 355° (N) 1,738 6.8 -18.5°
Maximum altitude 02:04:08 80° 83° (E) 524 3.5 -19.2°
Enters shadow 02:05:06 49° 162° (SSE) 671 3.9 -19.4°
